[[{"header":{"parameterUnit":"m.s-1","parameterCategory":2,"la1":30.2991,"la2":30.254,"lo1":-89.0895,"lo2":-89.0444,"dy":0.0017,"dx":0.0017,"nx":28,"ny":28,"refTime":"2024-07-06T09:00:00:Z","depth":"0","parameterNumber":2,"parameterNumberName":"U-component_of_CURRENTS"},"data":[0,0,0,0,0,0,0,0,0,0,0,0,0,0,0,0,0,0,0,0,0,0,0,0,0,0,0,0,0,0,0,0,0,0,0,0,0,0,0,0,0,0,0,0,0,0,0,0,0,0,0,0,0,0,0,0,0,0,-0.2403,-0.2403,0,-0.2388,-0.2388,-0.2387,-0.2335,-0.2335,-0.2334,-0.2333,-0.223,-0.2228,-0.2226,0,0,0,0,0,0,0,0,0,0,0,0,0,-0.2351,-0.2352,-0.2403,-0.2403,-0.2403,-0.2388,-0.2388,-0.2387,-0.2336,-0.2335,-0.2333,-0.2332,-0.2231,-0.2228,-0.2226,0,0,0,0,0,0,0,0,0,0,0,0,0,-0.2355,-0.2352,-0.2403,-0.2378,-0.2376,-0.2388,-0.2388,-0.2387,-0.2336,-0.2334,-0.2333,-0.2332,-0.2231,-0.2229,-0.2226,-0.2234,0,0,-0.2217,-0.2216,0,0,0,0,0,0,0,0,-0.2355,-0.2357,-0.2382,-0.238,-0.2378,-0.2365,-0.2332,-0.2333,-0.2336,-0.2348,-0.2333,-0.2331,-0.227,-0.2264,-0.2261,-0.2229,-0.2224,-0.2217,-0.2215,-0.2214,-0.2213,0,0,0,0,0,0,0,-0.2355,-0.2357,-0.2394,-0.2382,-0.238,-0.2356,-0.2355,-0.2332,-0.2312,-0.2346,-0.2344,-0.2348,-0.2268,-0.2264,-0.2258,-0.2223,-0.2217,-0.2214,-0.2212,-0.2211,-0.2188,-0.2189,0,0,0,0,0,0,-0.2367,-0.2357,-0.2394,-0.2394,-0.2367,-0.2358,-0.2357,-0.2368,-0.2314,-0.2306,-0.2349,-0.2345,-0.2269,-0.2261,-0.2254,-0.2254,-0.2214,-0.2211,-0.2209,-0.2187,-0.2189,-0.219,0,0,0,0,0,0,-0.2366,-0.2371,-0.2395,-0.2377,-0.2379,-0.2361,-0.2373,-0.2368,-0.2361,-0.2318,-0.2307,-0.2347,-0.2268,-0.2258,-0.2238,-0.225,-0.221,-0.2207,-0.2186,-0.2188,-0.2189,-0.2258,0,0,0,0,0,0,-0.2365,-0.2371,-0.2379,-0.2379,-0.2381,-0.2402,-0.2375,-0.2369,-0.2368,-0.2363,-0.2313,-0.2302,-0.2266,-0.2242,-0.2235,-0.2245,-0.2205,-0.2184,-0.2187,-0.2189,-0.2254,-0.2262,-0.2268,0,0,0,0,0,-0.2363,-0.2379,-0.2379,-0.2384,-0.2393,-0.2403,-0.2402,-0.2382,-0.2369,-0.237,-0.234,-0.2303,-0.225,-0.2241,-0.2232,-0.2241,-0.2183,-0.2186,-0.2188,-0.2251,-0.226,-0.2268,0,0,0,0,0,0,-0.2354,-0.2375,-0.2376,-0.2395,-0.2401,-0.2396,-0.2394,-0.2389,-0.2369,-0.2359,-0.2316,-0.2304,-0.2292,-0.2263,-0.2254,-0.2243,-0.2212,-0.2213,-0.2263,-0.2271,-0.2278,-0.229,-0.2202,0,0,0,0,0,-0.2361,-0.2377,-0.2392,-0.2405,-0.241,-0.2406,-0.2406,-0.2398,-0.2385,-0.2375,-0.2342,-0.2312,-0.2299,-0.2281,-0.2258,-0.2251,-0.225,-0.2253,-0.226,-0.2266,-0.2271,-0.228,-0.2289,-0.2198,-0.2198,-0.2198,0,0,-0.2361,-0.2374,-0.2383,-0.2404,-0.2403,-0.2419,-0.2401,-0.2406,-0.2416,-0.2367,-0.2357,-0.2334,-0.2304,-0.2297,-0.2289,-0.227,-0.2299,-0.2269,-0.2274,-0.2276,-0.2284,-0.2293,-0.23,-0.22,-0.22,-0.2199,0,0,-0.2364,-0.2382,-0.2394,-0.241,-0.2421,-0.2424,-0.2431,-0.243,-0.2424,-0.2423,-0.2396,-0.2393,-0.235,-0.2346,-0.2337,-0.2373,-0.2339,-0.2353,-0.239,-0.24,-0.2407,-0.2414,-0.2458,-0.2468,-0.2351,-0.2351,-0.2351,0,-0.236,-0.2385,-0.2397,-0.2416,-0.2429,-0.2432,-0.2448,-0.2455,-0.2445,-0.2447,-0.2424,-0.2407,-0.2383,-0.2399,-0.2407,-0.2391,-0.239,-0.236,-0.2409,-0.2415,-0.2421,-0.2464,-0.2474,-0.2355,-0.2355,-0.2354,-0.2354,0,-0.2374,-0.2398,-0.2407,-0.2437,-0.2452,-0.2467,-0.2486,-0.2492,-0.2486,-0.2491,-0.2499,-0.248,-0.2468,-0.2467,-0.2443,-0.2471,-0.2459,-0.2422,-0.2388,-0.2434,-0.2477,-0.2486,-0.236,-0.2359,-0.2358,-0.2357,0,0,-0.2347,-0.2406,-0.2408,-0.2425,-0.2465,-0.2474,-0.2505,-0.2529,-0.2544,-0.2545,-0.2563,-0.2565,-0.2552,-0.2543,-0.2523,-0.2533,-0.2587,-0.2487,-0.2486,-0.2534,-0.2624,-0.2601,-0.2608,-0.254,-0.2541,-0.2542,-0.2651,0,-0.2348,-0.2385,-0.2418,-0.2451,-0.2471,-0.2501,-0.2529,-0.2554,-0.2565,-0.2582,-0.2597,-0.2598,-0.2583,-0.257,-0.2587,-0.2569,-0.2607,-0.2563,-0.257,-0.2572,-0.2546,-0.2616,-0.2421,-0.2498,-0.266,-0.2661,-0.2662,0,-0.2341,-0.2371,-0.2405,-0.2458,-0.2469,-0.2489,-0.2526,-0.2553,-0.2597,-0.2607,-0.2632,-0.2629,-0.2662,-0.263,-0.2672,-0.2632,-0.2643,-0.2644,-0.2647,-0.2603,-0.2564,-0.2472,-0.2508,-0.2257,-0.2676,-0.2675,-0.2674,0,-0.2297,-0.2356,-0.238,-0.2402,-0.2466,-0.2479,-0.2503,-0.2549,-0.2565,-0.2614,-0.2622,-0.2669,-0.2674,-0.2695,-0.2709,-0.2677,-0.2755,-0.2711,-0.2726,-0.2725,-0.2552,-0.2534,-0.2343,-0.2765,-0.2765,-0.2765,-0.2764,0,-0.2283,-0.2298,-0.2359,-0.2374,-0.2395,-0.2446,-0.2466,-0.2502,-0.2547,-0.2572,-0.262,-0.2644,-0.2679,-0.2722,-0.2736,-0.277,-0.2786,-0.2758,-0.2751,-0.2575,-0.2558,-0.2324,-0.234,-0.2769,-0.2768,-0.2767,-0.2766,0,-0.2227,-0.2274,-0.2301,-0.2362,-0.2375,-0.2382,-0.2427,-0.2443,-0.2496,-0.2529,-0.2539,-0.2621,-0.2684,-0.2743,-0.2795,-0.2799,-0.2753,-0.2848,-0.2664,-0.2634,-0.2391,-0.2423,-0.2495,-0.244,-0.2877,-0.2877,-0.2877,0,-0.2203,-0.2209,-0.2268,-0.228,-0.2304,-0.2326,-0.2341,-0.2401,-0.2425,-0.2513,-0.2526,-0.2608,-0.2658,-0.276,-0.2769,-0.2827,-0.2766,-0.2701,-0.261,-0.2368,-0.2398,-0.2477,-0.243,-0.2425,-0.2421,-0.2418,-0.2416,0,-0.2143,-0.2161,-0.2189,-0.2219,-0.2235,-0.2254,-0.2284,-0.2292,-0.2373,-0.2416,-0.2486,-0.253,-0.2618,-0.2574,-0.2654,-0.2669,-0.2545,-0.2643,-0.2405,-0.2062,-0.2123,-0.2065,-0.2397,-0.2389,-0.2392,-0.2394,-0.2395,-0.2396,-0.2084,-0.2087,-0.2125,-0.2149,-0.2168,-0.2175,-0.2157,-0.2219,-0.2254,-0.2301,-0.2404,-0.243,-0.2339,-0.2404,-0.2361,-0.2107,-0.2407,-0.202,-0.2099,-0.2212,-0.2092,-0.2405,-0.2375,-0.2378,-0.238,-0.2382,-0.2384,0,-0.201,-0.2025,-0.2049,-0.2073,-0.2062,-0.2097,-0.2112,-0.2095,-0.212,-0.2189,-0.2247,-0.2131,-0.1971,-0.1831,-0.1588,-0.1495,-0.1496,-0.1487,-0.1438,-0.1433,-0.1642,-0.1532,-0.1297,-0.1298,-0.1298,-0.1298,-0.1298,-0.1299,-0.197,-0.1966,-0.1995,-0.1965,-0.1966,-0.1906,-0.189,-0.1906,-0.1932,-0.1898,-0.1856,-0.1858,-0.1536,-0.1299,-0.0927,-0.0915,-0.0859,-0.1005,-0.1077,-0.1021,-0.107,-0.1117,-0.0998,-0.0656,-0.0656,-0.0703,-0.0703,-0.0703]},{"header":{"parameterUnit":"m.s-1","parameterCategory":2,"la1":30.2991,"la2":30.254,"lo1":-89.0895,"lo2":-89.0444,"dy":0.0017,"dx":0.0017,"nx":28,"ny":28,"refTime":"2024-07-06T09:00:00:Z","depth":"0","parameterNumber":3,"parameterNumberName":"V-component_of_CURRENTS"},"data":[0,0,0,0,0,0,0,0,0,0,0,0,0,0,0,0,0,0,0,0,0,0,0,0,0,0,0,0,0,0,0,0,0,0,0,0,0,0,0,0,0,0,0,0,0,0,0,0,0,0,0,0,0,0,0,0,0,0,-0.0997,-0.0996,0,-0.0907,-0.0906,-0.0905,-0.0857,-0.0857,-0.0857,-0.0857,-0.073,-0.0727,-0.0723,0,0,0,0,0,0,0,0,0,0,0,0,0,-0.1096,-0.1094,-0.0997,-0.0996,-0.0995,-0.0908,-0.0906,-0.0905,-0.0857,-0.0857,-0.0857,-0.0857,-0.0731,-0.0727,-0.0723,0,0,0,0,0,0,0,0,0,0,0,0,0,-0.1033,-0.1094,-0.0998,-0.0962,-0.0958,-0.0908,-0.0906,-0.0904,-0.0857,-0.0857,-0.0857,-0.0857,-0.0733,-0.0728,-0.0723,-0.0691,0,0,-0.0707,-0.0705,0,0,0,0,0,0,0,0,-0.1036,-0.1029,-0.0968,-0.0964,-0.096,-0.0895,-0.0894,-0.0832,-0.0857,-0.0893,-0.0857,-0.0857,-0.0783,-0.0773,-0.0755,-0.0685,-0.0679,-0.0707,-0.0704,-0.0701,-0.07,0,0,0,0,0,0,0,-0.1041,-0.1032,-0.096,-0.0967,-0.0962,-0.0939,-0.0931,-0.0882,-0.0837,-0.089,-0.0887,-0.0879,-0.078,-0.076,-0.0752,-0.0677,-0.0707,-0.0702,-0.0699,-0.0697,-0.0601,-0.0601,0,0,0,0,0,0,-0.1056,-0.1037,-0.0963,-0.0958,-0.1,-0.0938,-0.0928,-0.0914,-0.0838,-0.0828,-0.0879,-0.0877,-0.0769,-0.0758,-0.0747,-0.0731,-0.0701,-0.0697,-0.0694,-0.06,-0.0601,-0.0601,0,0,0,0,0,0,-0.1059,-0.105,-0.0967,-0.0997,-0.0985,-0.0937,-0.0921,-0.0912,-0.0892,-0.0831,-0.0819,-0.0868,-0.0768,-0.0754,-0.0715,-0.0724,-0.0694,-0.069,-0.06,-0.06,-0.0601,-0.0681,0,0,0,0,0,0,-0.1062,-0.1051,-0.1049,-0.0998,-0.0984,-0.0941,-0.0921,-0.0911,-0.0888,-0.0884,-0.0817,-0.0805,-0.0767,-0.0723,-0.071,-0.0717,-0.0686,-0.0599,-0.06,-0.0601,-0.0678,-0.0685,-0.069,0,0,0,0,0,-0.1065,-0.1066,-0.105,-0.1041,-0.0981,-0.0942,-0.0932,-0.0897,-0.0888,-0.0879,-0.0842,-0.0807,-0.0719,-0.0719,-0.0703,-0.0709,-0.0599,-0.06,-0.0601,-0.0675,-0.0683,-0.069,0,0,0,0,0,0,-0.111,-0.106,-0.1041,-0.1026,-0.0988,-0.0934,-0.0927,-0.09,-0.0863,-0.0864,-0.0806,-0.0792,-0.0761,-0.0724,-0.0725,-0.0686,-0.0656,-0.0654,-0.0718,-0.0725,-0.0731,-0.0763,-0.0682,0,0,0,0,0,-0.1118,-0.1104,-0.1052,-0.1041,-0.1025,-0.0975,-0.0957,-0.0932,-0.0892,-0.0876,-0.0826,-0.0784,-0.0753,-0.0731,-0.0689,-0.0663,-0.0674,-0.0659,-0.0665,-0.0671,-0.0688,-0.0704,-0.0714,-0.0605,-0.0605,-0.0605,0,0,-0.1135,-0.1105,-0.1098,-0.105,-0.1019,-0.1005,-0.0964,-0.094,-0.0935,-0.0867,-0.0842,-0.0797,-0.0749,-0.0726,-0.0709,-0.0697,-0.0715,-0.0672,-0.0678,-0.0691,-0.0707,-0.0718,-0.0727,-0.0606,-0.0606,-0.0605,0,0,-0.1162,-0.1132,-0.113,-0.1101,-0.1059,-0.1031,-0.1026,-0.0969,-0.0951,-0.092,-0.0879,-0.0845,-0.0782,-0.0756,-0.0738,-0.0751,-0.0745,-0.0734,-0.0793,-0.0809,-0.0819,-0.0827,-0.0895,-0.0909,-0.0741,-0.0741,-0.0741,0,-0.1184,-0.117,-0.1124,-0.1114,-0.1102,-0.1047,-0.1048,-0.1023,-0.0961,-0.096,-0.0926,-0.0866,-0.0803,-0.0807,-0.0802,-0.0766,-0.0795,-0.077,-0.082,-0.0828,-0.0836,-0.0902,-0.0916,-0.0745,-0.0745,-0.0744,-0.0744,0,-0.1206,-0.1196,-0.1194,-0.1167,-0.1148,-0.1137,-0.11,-0.1084,-0.1056,-0.1033,-0.1019,-0.0948,-0.0919,-0.0889,-0.0841,-0.0864,-0.0877,-0.0825,-0.0808,-0.0852,-0.0919,-0.0933,-0.0751,-0.0749,-0.0748,-0.0747,0,0,-0.1239,-0.1216,-0.1213,-0.1217,-0.1175,-0.1166,-0.1169,-0.1158,-0.1189,-0.1126,-0.1159,-0.1078,-0.1046,-0.1023,-0.0966,-0.0964,-0.1024,-0.0919,-0.0918,-0.1001,-0.1114,-0.1025,-0.1032,-0.0986,-0.0987,-0.0989,-0.1155,0,-0.1266,-0.1274,-0.1252,-0.1269,-0.127,-0.1238,-0.1255,-0.1245,-0.1234,-0.1251,-0.12,-0.1195,-0.11,-0.1091,-0.1077,-0.1023,-0.1058,-0.0988,-0.1046,-0.1049,-0.0975,-0.1042,-0.0879,-0.1003,-0.1168,-0.117,-0.1172,0,-0.1284,-0.1289,-0.1311,-0.1332,-0.1333,-0.1344,-0.1378,-0.1384,-0.1399,-0.1394,-0.1389,-0.135,-0.1329,-0.1242,-0.1231,-0.1194,-0.1171,-0.1141,-0.1145,-0.1042,-0.0983,-0.0975,-0.1021,-0.0712,-0.1192,-0.1191,-0.1189,0,-0.1322,-0.1331,-0.1358,-0.1356,-0.137,-0.1394,-0.1409,-0.1431,-0.1461,-0.1489,-0.1519,-0.1498,-0.149,-0.145,-0.1358,-0.1306,-0.1372,-0.1291,-0.1221,-0.1218,-0.1079,-0.1057,-0.0836,-0.1328,-0.1328,-0.1327,-0.1327,0,-0.1349,-0.1366,-0.1384,-0.1396,-0.1455,-0.1447,-0.1523,-0.1536,-0.1581,-0.1639,-0.1596,-0.1642,-0.1536,-0.154,-0.1454,-0.1389,-0.1457,-0.1262,-0.1249,-0.1104,-0.1084,-0.0804,-0.0693,-0.1334,-0.1332,-0.1331,-0.133,0,-0.1368,-0.1376,-0.1412,-0.145,-0.147,-0.1511,-0.158,-0.164,-0.1672,-0.175,-0.1761,-0.1766,-0.1767,-0.1698,-0.1651,-0.1511,-0.1295,-0.143,-0.1289,-0.1252,-0.0822,-0.0725,-0.067,-0.0539,-0.1368,-0.1367,-0.1366,0,-0.137,-0.1391,-0.1454,-0.1492,-0.1509,-0.1573,-0.1629,-0.1674,-0.1737,-0.1826,-0.1871,-0.1905,-0.1934,-0.1855,-0.1633,-0.1528,-0.1318,-0.127,-0.1099,-0.0792,-0.0677,-0.0669,-0.0561,-0.0986,-0.0982,-0.0978,-0.0976,0,-0.1376,-0.1404,-0.1443,-0.1529,-0.1591,-0.1671,-0.1749,-0.1809,-0.1875,-0.1946,-0.2041,-0.2079,-0.1983,-0.1778,-0.1588,-0.1441,-0.0996,-0.1194,-0.0897,-0.038,-0.034,-0.0208,-0.0926,-0.0945,-0.0948,-0.0951,-0.0952,-0.0954,-0.1375,-0.1416,-0.1483,-0.1563,-0.1649,-0.1754,-0.1824,-0.1916,-0.202,-0.2137,-0.2162,-0.2206,-0.1815,-0.1517,-0.1335,-0.0681,-0.0835,-0.042,-0.0353,-0.0394,-0.0161,-0.0832,-0.0797,-0.0799,-0.0801,-0.0802,-0.0804,0,-0.137,-0.143,-0.1512,-0.1622,-0.1726,-0.1765,-0.1898,-0.1971,-0.2095,-0.2191,-0.2282,-0.1936,-0.1502,-0.1033,-0.0202,0.0165,0.0226,0.0364,0.0478,0.053,-0.0055,0.0087,0.0347,0.0347,0.0346,0.0346,0.0346,0.0345,-0.1367,-0.1442,-0.1499,-0.1658,-0.1744,-0.1877,-0.195,-0.2062,-0.2139,-0.2138,-0.2021,-0.1909,-0.0932,0.0098,0.0949,0.1028,0.1275,0.121,0.1272,0.1005,0.094,0.0878,0.1047,0.1503,0.1504,0.1894,0.1899,0.1903]}],[{"header":{"parameterUnit":"m.s-1","parameterCategory":2,"la1":30.2991,"la2":30.254,"lo1":-89.0895,"lo2":-89.0444,"dy":0.0017,"dx":0.0017,"nx":28,"ny":28,"refTime":"2024-07-06T09:00:00:Z","depth":"2","parameterNumber":2,"parameterNumberName":"U-component_of_CURRENTS"},"data":[0,0,0,0,0,0,0,0,0,0,0,0,0,0,0,0,0,0,0,0,0,0,0,0,0,0,0,0,0,0,0,0,0,0,0,0,0,0,0,0,0,0,0,0,0,0,0,0,0,0,0,0,0,0,0,0,0,0,-0.2057,-0.2059,0,-0.214,-0.214,-0.214,-0.2127,-0.2127,-0.2127,-0.2127,-0.2048,-0.2047,-0.2045,0,0,0,0,0,0,0,0,0,0,0,0,0,-0.1876,-0.1878,-0.2057,-0.2059,-0.2062,-0.214,-0.214,-0.214,-0.2127,-0.2127,-0.2127,-0.2127,-0.2049,-0.2047,-0.2044,0,0,0,0,0,0,0,0,0,0,0,0,0,-0.1944,-0.1879,-0.2057,-0.2074,-0.2078,-0.214,-0.214,-0.214,-0.2127,-0.2127,-0.2127,-0.2126,-0.205,-0.2047,-0.2044,-0.2033,0,0,-0.2036,-0.2034,0,0,0,0,0,0,0,0,-0.194,-0.1949,-0.207,-0.2073,-0.2078,-0.2135,-0.2048,-0.2101,-0.2127,-0.2095,-0.2127,-0.2126,-0.2071,-0.2066,-0.2066,-0.2029,-0.2026,-0.2035,-0.2034,-0.2032,-0.2032,0,0,0,0,0,0,0,-0.1935,-0.1945,-0.2077,-0.2072,-0.2077,-0.2075,-0.2083,-0.2058,-0.207,-0.2098,-0.21,-0.213,-0.207,-0.2069,-0.2064,-0.2025,-0.2035,-0.2033,-0.2031,-0.203,-0.1947,-0.1947,0,0,0,0,0,0,-0.1953,-0.1941,-0.2074,-0.2081,-0.2021,-0.208,-0.2088,-0.2106,-0.2074,-0.2074,-0.2131,-0.213,-0.2074,-0.2068,-0.2061,-0.2049,-0.2032,-0.203,-0.2028,-0.1948,-0.1947,-0.1947,0,0,0,0,0,0,-0.1948,-0.1963,-0.2071,-0.2023,-0.2039,-0.2085,-0.2104,-0.2108,-0.2109,-0.2104,-0.2098,-0.2129,-0.2074,-0.2065,-0.204,-0.2046,-0.2028,-0.2026,-0.1949,-0.1948,-0.1947,-0.2022,0,0,0,0,0,0,-0.1942,-0.1961,-0.1983,-0.2025,-0.2043,-0.212,-0.2106,-0.211,-0.2135,-0.2133,-0.21,-0.2093,-0.2073,-0.2044,-0.2037,-0.2041,-0.2024,-0.1949,-0.1948,-0.1947,-0.202,-0.2024,-0.2027,0,0,0,0,0,-0.1935,-0.1969,-0.1983,-0.2001,-0.2071,-0.2122,-0.2129,-0.2152,-0.2135,-0.2145,-0.2114,-0.2094,-0.2032,-0.2042,-0.2033,-0.2037,-0.195,-0.1948,-0.1947,-0.2019,-0.2023,-0.2027,0,0,0,0,0,0,-0.191,-0.1974,-0.199,-0.2043,-0.2088,-0.2125,-0.2144,-0.2152,-0.2137,-0.2125,-0.2093,-0.2085,-0.2054,-0.2034,-0.2045,-0.2007,-0.1985,-0.1982,-0.2042,-0.2046,-0.2049,-0.1979,-0.2021,0,0,0,0,0,-0.1918,-0.1953,-0.2013,-0.2058,-0.2073,-0.2103,-0.2127,-0.2145,-0.2146,-0.2139,-0.2117,-0.2081,-0.2044,-0.2037,-0.1998,-0.1992,-0.1981,-0.1983,-0.1987,-0.199,-0.1925,-0.1938,-0.1937,-0.1943,-0.1943,-0.1943,0,0,-0.1924,-0.1967,-0.1988,-0.2056,-0.2077,-0.2102,-0.2111,-0.2151,-0.2156,-0.213,-0.2108,-0.2084,-0.2038,-0.2022,-0.2008,-0.201,-0.2,-0.1989,-0.1993,-0.1923,-0.1937,-0.1936,-0.1936,-0.1942,-0.1943,-0.1943,0,0,-0.1943,-0.1981,-0.2006,-0.2041,-0.21,-0.2115,-0.2126,-0.2159,-0.2151,-0.2157,-0.2116,-0.209,-0.2066,-0.2026,-0.2003,-0.1997,-0.2005,-0.2002,-0.1982,-0.1999,-0.1998,-0.1997,-0.2064,-0.2068,-0.2022,-0.2022,-0.2022,0,-0.1948,-0.198,-0.2025,-0.2055,-0.2064,-0.2113,-0.2115,-0.2135,-0.2157,-0.2123,-0.2156,-0.207,-0.2056,-0.1988,-0.1991,-0.2003,-0.203,-0.1983,-0.2006,-0.2004,-0.2001,-0.2069,-0.2073,-0.2026,-0.2025,-0.2025,-0.2025,0,-0.198,-0.2001,-0.2014,-0.2052,-0.2072,-0.209,-0.2119,-0.2124,-0.2126,-0.213,-0.2075,-0.2068,-0.2008,-0.2024,-0.2008,-0.197,-0.2006,-0.2005,-0.2003,-0.2006,-0.2078,-0.208,-0.2031,-0.2029,-0.2028,-0.2028,0,0,-0.1966,-0.202,-0.2018,-0.2004,-0.2055,-0.2061,-0.2065,-0.2048,-0.2021,-0.2055,-0.2004,-0.1968,-0.1961,-0.1927,-0.1923,-0.1939,-0.2001,-0.1969,-0.1968,-0.2047,-0.2083,-0.1924,-0.1912,-0.2024,-0.2023,-0.2022,-0.2171,0,-0.1953,-0.1984,-0.2004,-0.1989,-0.1983,-0.1998,-0.1985,-0.1985,-0.1994,-0.1977,-0.1959,-0.1925,-0.1932,-0.1923,-0.1934,-0.1969,-0.1995,-0.1961,-0.205,-0.2052,-0.192,-0.1902,-0.1699,-0.1793,-0.2173,-0.2174,-0.2174,0,-0.1951,-0.196,-0.1958,-0.1909,-0.1899,-0.1907,-0.185,-0.1846,-0.1843,-0.1849,-0.1829,-0.1839,-0.1835,-0.1863,-0.1922,-0.1912,-0.1969,-0.2015,-0.2023,-0.1818,-0.189,-0.1831,-0.1783,-0.2178,-0.2177,-0.2177,-0.2177,0,-0.1899,-0.1894,-0.1875,-0.1878,-0.1873,-0.1838,-0.1809,-0.1801,-0.1771,-0.1773,-0.179,-0.1781,-0.1824,-0.1858,-0.1953,-0.1954,-0.2044,-0.2077,-0.1983,-0.1979,-0.1777,-0.1752,-0.2081,-0.2081,-0.2081,-0.208,-0.208,0,-0.187,-0.1833,-0.1854,-0.1854,-0.1759,-0.1782,-0.1705,-0.1682,-0.1693,-0.168,-0.1716,-0.1738,-0.1825,-0.1897,-0.1951,-0.1969,-0.2058,-0.1931,-0.1968,-0.1804,-0.1781,-0.2063,-0.2059,-0.2086,-0.2085,-0.2084,-0.2083,0,-0.1819,-0.1852,-0.1805,-0.1786,-0.1749,-0.1687,-0.1622,-0.1594,-0.1629,-0.1634,-0.1642,-0.174,-0.1829,-0.1902,-0.2009,-0.1977,-0.2004,-0.1987,-0.1801,-0.1804,-0.1946,-0.1944,-0.1895,-0.189,-0.1885,-0.1881,-0.1878,0,-0.1792,-0.179,-0.1741,-0.1683,-0.1665,-0.1586,-0.1534,-0.1539,-0.1537,-0.1638,-0.1645,-0.1749,-0.1783,-0.1859,-0.1797,-0.1811,-0.1946,-0.1642,-0.1534,-0.1866,-0.191,-0.1915,-0.1919,-0.1379,-0.1372,-0.1367,-0.1362,0,-0.1709,-0.172,-0.1694,-0.1581,-0.1517,-0.1442,-0.1394,-0.1396,-0.1459,-0.1524,-0.1623,-0.1662,-0.1669,-0.1555,-0.1515,-0.1499,-0.1603,-0.1518,-0.1924,-0.1408,-0.1376,-0.142,-0.1443,-0.1311,-0.1316,-0.132,-0.1323,-0.1325,-0.1622,-0.1589,-0.1562,-0.1426,-0.137,-0.132,-0.1262,-0.1314,-0.1346,-0.1453,-0.1551,-0.1546,-0.148,-0.1269,-0.1213,-0.1124,-0.1238,-0.1196,-0.1216,-0.1242,-0.1105,-0.1059,-0.0917,-0.092,-0.0922,-0.0924,-0.0926,0,-0.1486,-0.1464,-0.137,-0.1269,-0.1197,-0.119,-0.1171,-0.117,-0.1247,-0.1327,-0.1418,-0.1224,-0.1074,-0.1014,-0.0741,-0.067,-0.0699,-0.0684,-0.0732,-0.0778,-0.082,-0.0666,-0.0361,-0.036,-0.036,-0.0359,0,0,-0.1412,-0.1309,-0.1269,-0.11,-0.1058,-0.0981,-0.0977,-0.1025,-0.1043,-0.1113,-0.1073,-0.1138,-0.0977,-0.0718,-0.0616,-0.0452,-0.0642,-0.0421,-0.0858,-0.0962,-0.1006,-0.1072,-0.0878,0,0,0,0,0]},{"header":{"parameterUnit":"m.s-1","parameterCategory":2,"la1":30.2991,"la2":30.254,"lo1":-89.0895,"lo2":-89.0444,"dy":0.0017,"dx":0.0017,"nx":28,"ny":28,"refTime":"2024-07-06T09:00:00:Z","depth":"2","parameterNumber":3,"parameterNumberName":"V-component_of_CURRENTS"},"data":[0,0,0,0,0,0,0,0,0,0,0,0,0,0,0,0,0,0,0,0,0,0,0,0,0,0,0,0,0,0,0,0,0,0,0,0,0,0,0,0,0,0,0,0,0,0,0,0,0,0,0,0,0,0,0,0,0,0,0.0334,0.0338,0,0.0578,0.058,0.0582,0.0639,0.0638,0.0638,0.0637,0.0697,0.0699,0.0701,0,0,0,0,0,0,0,0,0,0,0,0,0,0.0168,0.0168,0.0334,0.0338,0.0342,0.0577,0.058,0.0582,0.0639,0.0638,0.0638,0.0637,0.0696,0.0698,0.0701,0,0,0,0,0,0,0,0,0,0,0,0,0,0.0298,0.0168,0.0333,0.0407,0.0416,0.0577,0.058,0.0583,0.0639,0.0638,0.0637,0.0636,0.0695,0.0698,0.0701,0.0743,0,0,0.0712,0.0713,0,0,0,0,0,0,0,0,0.029,0.0302,0.0392,0.0402,0.0413,0.0586,0.0544,0.0631,0.064,0.0544,0.0637,0.0636,0.065,0.0657,0.0693,0.0746,0.0748,0.0712,0.0714,0.0715,0.0716,0,0,0,0,0,0,0,0.0281,0.0294,0.042,0.0396,0.041,0.0514,0.0528,0.0562,0.0588,0.0552,0.0559,0.0603,0.0653,0.069,0.0694,0.0749,0.0712,0.0715,0.0717,0.0718,0.0859,0.0861,0,0,0,0,0,0,0.026,0.0284,0.0412,0.0428,0.036,0.0517,0.0533,0.0523,0.0592,0.0606,0.0604,0.0606,0.0685,0.069,0.0696,0.0718,0.0715,0.0719,0.072,0.0857,0.0859,0.0861,0,0,0,0,0,0,0.0254,0.0266,0.0403,0.0374,0.04,0.052,0.0511,0.0529,0.0561,0.0636,0.0644,0.0618,0.0684,0.0692,0.0735,0.0721,0.072,0.0723,0.0855,0.0858,0.086,0.0781,0,0,0,0,0,0,0.0247,0.0261,0.0265,0.037,0.0401,0.0485,0.0513,0.0535,0.0596,0.0599,0.065,0.0656,0.0684,0.073,0.0738,0.0726,0.0726,0.0853,0.0856,0.0859,0.0781,0.078,0.0779,0,0,0,0,0,0.0239,0.0247,0.0262,0.0281,0.0393,0.0487,0.0511,0.059,0.0597,0.0611,0.0655,0.0654,0.0756,0.0734,0.0743,0.0732,0.0851,0.0855,0.0859,0.0781,0.078,0.0779,0,0,0,0,0,0,0.0203,0.0258,0.0276,0.0305,0.0385,0.05,0.054,0.0585,0.0636,0.0631,0.0675,0.0685,0.0719,0.0752,0.0726,0.079,0.0804,0.081,0.0742,0.0741,0.074,0.067,0.0728,0,0,0,0,0,0.019,0.0191,0.0278,0.0308,0.0332,0.0429,0.0483,0.053,0.0595,0.0617,0.0656,0.0703,0.0749,0.0762,0.081,0.0839,0.0861,0.0845,0.0843,0.0842,0.0797,0.0824,0.0819,0.0874,0.0874,0.0874,0,0,0.0193,0.0227,0.0233,0.03,0.0358,0.0389,0.0454,0.0522,0.0544,0.0613,0.0639,0.0699,0.0761,0.0799,0.0816,0.0816,0.0854,0.0847,0.0844,0.08,0.0827,0.0821,0.0815,0.0877,0.0876,0.0876,0,0,0.0186,0.0209,0.0195,0.024,0.0323,0.0382,0.039,0.0484,0.0512,0.0571,0.062,0.0676,0.0745,0.0785,0.0815,0.0842,0.0853,0.086,0.0783,0.081,0.0804,0.0798,0.0868,0.0869,0.0851,0.0851,0.0851,0,0.0187,0.0168,0.0222,0.0221,0.0252,0.0357,0.0354,0.0414,0.0515,0.0504,0.0564,0.0656,0.0737,0.0746,0.0778,0.0832,0.0853,0.0772,0.0802,0.0796,0.0792,0.0864,0.0866,0.0848,0.0848,0.0849,0.0849,0,0.016,0.0149,0.015,0.0155,0.02,0.0226,0.0299,0.0324,0.0379,0.0421,0.045,0.0579,0.0615,0.0676,0.0743,0.0745,0.0776,0.0798,0.0784,0.078,0.086,0.0863,0.0843,0.0844,0.0845,0.0846,0,0,0.0128,0.0122,0.0117,0.0093,0.0155,0.0184,0.0193,0.0213,0.0195,0.0291,0.0271,0.04,0.0444,0.0484,0.0578,0.0625,0.0683,0.0689,0.0692,0.0722,0.0755,0.0792,0.08,0.0686,0.0685,0.0685,0.084,0,0.0081,0.0039,0.0054,0.0025,0.0006,0.0059,0.0052,0.0081,0.0138,0.0153,0.0239,0.0289,0.0377,0.0426,0.047,0.0638,0.0678,0.064,0.0783,0.0788,0.079,0.08,0.0705,0.0833,0.0843,0.0844,0.0844,0,0.0027,0.0004,-0.0047,-0.0089,-0.0098,-0.0091,-0.0109,-0.0098,-0.0073,-0.0035,-0.0012,0.0077,0.0167,0.0273,0.0446,0.0406,0.0552,0.0681,0.069,0.0734,0.0828,0.0834,0.0839,0.085,0.085,0.0849,0.0849,0,-0.0036,-0.0079,-0.0129,-0.0133,-0.0147,-0.0178,-0.0182,-0.0172,-0.0177,-0.0142,-0.0121,-0.0056,0.0041,0.0172,0.0437,0.0439,0.0644,0.069,0.0844,0.0852,0.0803,0.0806,0.0776,0.0776,0.0776,0.0775,0.0775,0,-0.0101,-0.0148,-0.0163,-0.0188,-0.0265,-0.0249,-0.0305,-0.0311,-0.0289,-0.031,-0.0222,-0.0186,0.0018,0.0165,0.0375,0.0617,0.0587,0.0814,0.0874,0.0784,0.0784,0.081,0.0811,0.0781,0.078,0.0779,0.0778,0,-0.0159,-0.0172,-0.0235,-0.0273,-0.0293,-0.0341,-0.0369,-0.0394,-0.0378,-0.0382,-0.0368,-0.0261,-0.0071,0.0145,0.0423,0.0565,0.0795,0.0884,0.0787,0.0831,0.1007,0.1003,0.1067,0.1069,0.1071,0.1072,0.1073,0,-0.0192,-0.0227,-0.029,-0.0326,-0.0342,-0.0398,-0.0432,-0.0436,-0.0439,-0.0423,-0.0417,-0.0265,-0.0152,0.0241,0.0512,0.0832,0.0866,0.094,0.0926,0.0974,0.1027,0.1021,0.1015,0.0868,0.0868,0.0867,0.0867,0,-0.0249,-0.0265,-0.0309,-0.0383,-0.0423,-0.0477,-0.0514,-0.0528,-0.0532,-0.0533,-0.0499,-0.0414,-0.0082,0.0211,0.0608,0.0782,0.0876,0.0945,0.0996,0.0802,0.0797,0.0846,0.0845,0.0863,0.0863,0.0864,0.0864,0.0864,-0.028,-0.032,-0.0369,-0.0444,-0.0488,-0.0534,-0.0574,-0.0599,-0.0631,-0.0594,-0.0515,-0.0327,-0.0062,0.0512,0.0689,0.0868,0.0927,0.0991,0.0987,0.0985,0.0927,0.0923,0.1007,0.1008,0.1009,0.101,0.1011,0,-0.0316,-0.0361,-0.0426,-0.0503,-0.0547,-0.0566,-0.0611,-0.0628,-0.0672,-0.0542,-0.0466,-0.0148,0.0186,0.0469,0.0728,0.0892,0.0837,0.0912,0.0807,0.0811,0.0814,0.0742,0.0776,0.0776,0.0775,0.0775,0,0,-0.0336,-0.0405,-0.0442,-0.0535,-0.0578,-0.0629,-0.0652,-0.0683,-0.0593,-0.0512,-0.0316,0.0036,0.0323,0.0496,0.0627,0.0704,0.0716,0.0694,0.0867,0.0728,0.0729,0.0846,0.0739,0,0,0,0,0]}],[{"header":{"parameterUnit":"m.s-1","parameterCategory":2,"la1":30.2991,"la2":30.254,"lo1":-89.0895,"lo2":-89.0444,"dy":0.0017,"dx":0.0017,"nx":28,"ny":28,"refTime":"2024-07-06T09:00:00:Z","depth":"4","parameterNumber":2,"parameterNumberName":"U-component_of_CURRENTS"},"data":[0,0,0,0,0,0,0,0,0,0,0,0,0,0,0,0,0,0,0,0,0,0,0,0,0,0,0,0,0,0,0,0,0,0,0,0,0,0,0,0,0,0,0,0,0,0,0,0,0,0,0,0,0,0,0,0,0,0,-0.1005,-0.1006,0,-0.105,-0.1051,-0.1051,-0.1076,-0.1076,-0.1076,-0.1076,-0.1118,-0.1119,-0.112,0,0,0,0,0,0,0,0,0,0,0,0,0,-0.0933,-0.0934,-0.1005,-0.1006,-0.1006,-0.105,-0.1051,-0.1052,-0.1076,-0.1076,-0.1076,-0.1076,-0.1118,-0.1119,-0.112,0,0,0,0,0,0,0,0,0,0,0,0,0,-0.0969,-0.0935,-0.1005,-0.1024,-0.1027,-0.105,-0.1051,-0.1052,-0.1076,-0.1076,-0.1076,-0.1077,-0.1118,-0.1119,-0.1121,-0.1126,0,0,-0.1125,-0.1126,0,0,0,0,0,0,0,0,-0.0967,-0.0972,-0.1021,-0.1023,-0.1026,-0.1058,-0.1041,-0.1077,-0.1076,-0.1057,-0.1076,-0.1077,-0.1098,-0.1101,-0.1109,-0.1128,-0.113,-0.1125,-0.1126,-0.1127,-0.1127,0,0,0,0,0,0,0,-0.0965,-0.097,-0.1022,-0.1022,-0.1024,-0.1029,-0.1034,-0.1048,-0.1075,-0.1058,-0.106,-0.1066,-0.1099,-0.1107,-0.111,-0.1131,-0.1125,-0.1127,-0.1127,-0.1128,-0.121,-0.1211,0,0,0,0,0,0,-0.0961,-0.0968,-0.1021,-0.1024,-0.0997,-0.103,-0.1036,-0.1047,-0.1075,-0.108,-0.1066,-0.1067,-0.1104,-0.1108,-0.1111,-0.117,-0.1127,-0.1128,-0.1129,-0.1209,-0.121,-0.1211,0,0,0,0,0,0,-0.0959,-0.0965,-0.1019,-0.0997,-0.1004,-0.1031,-0.1044,-0.1048,-0.1071,-0.1081,-0.1086,-0.1087,-0.1105,-0.1109,-0.1145,-0.117,-0.1129,-0.113,-0.1207,-0.1209,-0.1211,-0.1255,0,0,0,0,0,0,-0.0957,-0.0965,-0.0978,-0.0997,-0.1005,-0.1047,-0.1044,-0.1049,-0.1074,-0.1076,-0.11,-0.1103,-0.1105,-0.1143,-0.1146,-0.1171,-0.1131,-0.1205,-0.1208,-0.121,-0.1252,-0.1258,-0.1263,0,0,0,0,0,-0.0954,-0.097,-0.0979,-0.0985,-0.1021,-0.1048,-0.1053,-0.1072,-0.1075,-0.1092,-0.1111,-0.1103,-0.116,-0.1145,-0.1149,-0.1175,-0.1204,-0.1207,-0.121,-0.1249,-0.1257,-0.1263,0,0,0,0,0,0,-0.0941,-0.0975,-0.0984,-0.1009,-0.1033,-0.1053,-0.1072,-0.1081,-0.1109,-0.1114,-0.1121,-0.1126,-0.1164,-0.1165,-0.1149,-0.1206,-0.1181,-0.1184,-0.1209,-0.1216,-0.1222,-0.1225,-0.1133,0,0,0,0,0,-0.0945,-0.097,-0.0997,-0.1018,-0.1034,-0.1055,-0.1071,-0.1083,-0.1106,-0.1119,-0.1138,-0.1157,-0.1177,-0.1194,-0.1208,-0.1242,-0.1227,-0.1261,-0.1267,-0.1272,-0.1278,-0.1276,-0.1282,-0.1221,-0.1221,-0.1221,0,0,-0.0944,-0.0967,-0.098,-0.1017,-0.1039,-0.1064,-0.1066,-0.1095,-0.1117,-0.1118,-0.1163,-0.1177,-0.1189,-0.1227,-0.1244,-0.1234,-0.1281,-0.1276,-0.128,-0.1283,-0.1279,-0.1285,-0.129,-0.1223,-0.1222,-0.1222,0,0,-0.0951,-0.0979,-0.1002,-0.1026,-0.1062,-0.108,-0.1092,-0.1126,-0.1146,-0.1183,-0.1192,-0.1223,-0.1255,-0.1273,-0.1282,-0.1329,-0.1308,-0.1339,-0.1376,-0.1374,-0.1379,-0.1383,-0.1365,-0.1367,-0.1346,-0.1346,-0.1346,0,-0.0945,-0.0979,-0.1011,-0.1038,-0.1062,-0.1089,-0.1116,-0.114,-0.1181,-0.121,-0.1203,-0.1268,-0.1273,-0.1323,-0.1341,-0.1341,-0.1334,-0.1347,-0.1381,-0.1384,-0.1388,-0.1369,-0.137,-0.1348,-0.1348,-0.1348,-0.1348,0,-0.0965,-0.0997,-0.1014,-0.1059,-0.1093,-0.1119,-0.1159,-0.1199,-0.1224,-0.1249,-0.1308,-0.132,-0.136,-0.1369,-0.1369,-0.141,-0.1394,-0.1383,-0.136,-0.1396,-0.1374,-0.1375,-0.1352,-0.1351,-0.135,-0.135,0,0,-0.0927,-0.1011,-0.1014,-0.1052,-0.1107,-0.1139,-0.119,-0.125,-0.1289,-0.1328,-0.1376,-0.1415,-0.143,-0.1442,-0.145,-0.1456,-0.1465,-0.1438,-0.1436,-0.1414,-0.1455,-0.1366,-0.1357,-0.1463,-0.1463,-0.1464,-0.1428,0,-0.0928,-0.0983,-0.1028,-0.1088,-0.1124,-0.1181,-0.1229,-0.1289,-0.1331,-0.1384,-0.1415,-0.1452,-0.1454,-0.1471,-0.1484,-0.1469,-0.1471,-0.1475,-0.1429,-0.1427,-0.1338,-0.1357,-0.1466,-0.1428,-0.1428,-0.1429,-0.1429,0,-0.0919,-0.0965,-0.1022,-0.1122,-0.1145,-0.1189,-0.1285,-0.133,-0.1408,-0.1438,-0.1491,-0.1507,-0.1541,-0.1518,-0.1522,-0.1528,-0.15,-0.148,-0.1478,-0.138,-0.1339,-0.1387,-0.143,-0.143,-0.143,-0.1429,-0.1429,0,-0.0871,-0.096,-0.1012,-0.1041,-0.1151,-0.1204,-0.1265,-0.1352,-0.1394,-0.1468,-0.149,-0.1544,-0.1544,-0.1545,-0.1515,-0.152,-0.1495,-0.1487,-0.1382,-0.1375,-0.1447,-0.1443,-0.1479,-0.1479,-0.148,-0.148,-0.148,0,-0.0842,-0.0888,-0.1002,-0.1029,-0.1112,-0.1194,-0.1271,-0.1341,-0.1413,-0.1441,-0.1512,-0.1509,-0.1549,-0.1541,-0.1525,-0.1451,-0.1499,-0.1387,-0.1362,-0.1465,-0.1464,-0.1446,-0.1443,-0.1478,-0.1479,-0.1479,-0.1479,0,-0.078,-0.0848,-0.0921,-0.1043,-0.1091,-0.1149,-0.127,-0.1312,-0.1387,-0.1417,-0.1434,-0.1481,-0.1456,-0.1487,-0.1461,-0.1429,-0.1387,-0.1348,-0.1452,-0.1433,-0.1267,-0.1266,-0.1226,-0.1222,-0.122,-0.1217,-0.1215,0,-0.0755,-0.0782,-0.0913,-0.0965,-0.1028,-0.1123,-0.118,-0.1285,-0.1311,-0.1367,-0.136,-0.137,-0.1384,-0.1282,-0.1327,-0.1303,-0.1289,-0.1272,-0.1281,-0.1263,-0.1242,-0.1246,-0.125,-0.121,-0.121,-0.1209,-0.1208,0,-0.07,-0.0745,-0.0799,-0.091,-0.0987,-0.1062,-0.1144,-0.115,-0.1231,-0.1299,-0.1235,-0.1221,-0.1191,-0.1185,-0.1184,-0.1166,-0.1293,-0.1241,-0.1247,-0.1256,-0.1244,-0.1227,-0.1234,-0.1198,-0.12,-0.12,-0.1201,0,-0.0653,-0.0672,-0.0748,-0.0848,-0.0936,-0.0982,-0.1035,-0.1052,-0.1086,-0.114,-0.1094,-0.1108,-0.1138,-0.1109,-0.11,-0.1092,-0.1078,-0.1057,-0.1073,-0.1084,-0.1062,-0.1027,-0.0889,0,0,0,0,0,-0.0597,-0.0622,-0.0695,-0.0794,-0.0875,-0.0931,-0.1006,-0.1047,-0.1101,-0.1019,-0.1058,-0.1016,-0.0985,-0.0999,-0.0962,-0.1068,-0.1109,-0.1025,-0.11,-0.1142,-0.1154,-0.1144,0,0,0,0,0,0,-0.0569,-0.0611,-0.0659,-0.0726,-0.078,-0.0856,-0.0892,-0.0931,-0.0895,-0.094,-0.0922,-0.0959,-0.0949,-0.0981,-0.0938,-0.0948,-0.0978,-0.1047,-0.1044,-0.1136,-0.1146,-0.1156,-0.115,0,0,0,0,0]},{"header":{"parameterUnit":"m.s-1","parameterCategory":2,"la1":30.2991,"la2":30.254,"lo1":-89.0895,"lo2":-89.0444,"dy":0.0017,"dx":0.0017,"nx":28,"ny":28,"refTime":"2024-07-06T09:00:00:Z","depth":"4","parameterNumber":3,"parameterNumberName":"V-component_of_CURRENTS"},"data":[0,0,0,0,0,0,0,0,0,0,0,0,0,0,0,0,0,0,0,0,0,0,0,0,0,0,0,0,0,0,0,0,0,0,0,0,0,0,0,0,0,0,0,0,0,0,0,0,0,0,0,0,0,0,0,0,0,0,-0.021,-0.0211,0,-0.0216,-0.0216,-0.0216,-0.0205,-0.0204,-0.0204,-0.0204,-0.0178,-0.0177,-0.0177,0,0,0,0,0,0,0,0,0,0,0,0,0,-0.0163,-0.0164,-0.021,-0.0211,-0.0211,-0.0216,-0.0216,-0.0216,-0.0205,-0.0204,-0.0204,-0.0204,-0.0178,-0.0177,-0.0177,0,0,0,0,0,0,0,0,0,0,0,0,0,-0.0177,-0.0164,-0.021,-0.0206,-0.0206,-0.0216,-0.0216,-0.0216,-0.0205,-0.0204,-0.0204,-0.0203,-0.0178,-0.0177,-0.0177,-0.0183,0,0,-0.0175,-0.0175,0,0,0,0,0,0,0,0,-0.0177,-0.0179,-0.0207,-0.0206,-0.0206,-0.021,-0.019,-0.0204,-0.0205,-0.0205,-0.0204,-0.0203,-0.0186,-0.0185,-0.0187,-0.0182,-0.0181,-0.0175,-0.0175,-0.0174,-0.0174,0,0,0,0,0,0,0,-0.0176,-0.0179,-0.0212,-0.0207,-0.0206,-0.0195,-0.0196,-0.0192,-0.0197,-0.0205,-0.0204,-0.0206,-0.0186,-0.0187,-0.0186,-0.018,-0.0175,-0.0174,-0.0174,-0.0174,-0.016,-0.0159,0,0,0,0,0,0,-0.0178,-0.0178,-0.0212,-0.0212,-0.019,-0.0196,-0.0198,-0.0209,-0.0198,-0.0196,-0.0206,-0.0205,-0.0189,-0.0187,-0.0185,-0.017,-0.0174,-0.0174,-0.0173,-0.016,-0.016,-0.0159,0,0,0,0,0,0,-0.0177,-0.0182,-0.0212,-0.0195,-0.0198,-0.0198,-0.021,-0.0209,-0.0214,-0.0199,-0.0197,-0.0211,-0.0188,-0.0186,-0.0179,-0.0169,-0.0174,-0.0173,-0.016,-0.016,-0.016,-0.0153,0,0,0,0,0,0,-0.0176,-0.0181,-0.0191,-0.0196,-0.0199,-0.0225,-0.021,-0.0209,-0.0215,-0.0214,-0.0203,-0.02,-0.0188,-0.018,-0.0179,-0.0168,-0.0173,-0.016,-0.016,-0.016,-0.0153,-0.0152,-0.0152,0,0,0,0,0,-0.0174,-0.0195,-0.0191,-0.0195,-0.0212,-0.0226,-0.0227,-0.0224,-0.0216,-0.0225,-0.0209,-0.0201,-0.0179,-0.018,-0.0178,-0.0167,-0.016,-0.016,-0.016,-0.0153,-0.0153,-0.0152,0,0,0,0,0,0,-0.0182,-0.0195,-0.0192,-0.0216,-0.0221,-0.0224,-0.0231,-0.0229,-0.0225,-0.022,-0.0203,-0.02,-0.019,-0.0184,-0.0186,-0.0164,-0.0167,-0.0166,-0.0162,-0.0162,-0.0161,-0.015,-0.0172,0,0,0,0,0,-0.0188,-0.0205,-0.0211,-0.023,-0.0231,-0.0231,-0.0235,-0.0235,-0.0232,-0.023,-0.0221,-0.0206,-0.0189,-0.018,-0.0173,-0.0163,-0.012,-0.0155,-0.0154,-0.0154,-0.0144,-0.0054,-0.0043,-0.0159,-0.0159,-0.0159,0,0,-0.0195,-0.0205,-0.0214,-0.0232,-0.0232,-0.0243,-0.0233,-0.0244,-0.0247,-0.0227,-0.0228,-0.021,-0.0189,-0.0174,-0.0169,-0.0166,-0.0102,-0.0154,-0.0153,-0.0144,-0.0052,-0.004,-0.003,-0.0159,-0.0159,-0.0159,0,0,-0.0218,-0.0226,-0.0244,-0.0249,-0.0257,-0.0257,-0.0262,-0.0266,-0.026,-0.0266,-0.0238,-0.021,-0.0211,-0.0172,-0.0156,-0.015,-0.0107,-0.0155,-0.0136,-0.0048,-0.0037,-0.0026,0.0032,0.0048,-0.0148,-0.0148,-0.0148,0,-0.0224,-0.0249,-0.0251,-0.0266,-0.027,-0.0264,-0.0278,-0.0275,-0.0277,-0.0257,-0.027,-0.0212,-0.0204,-0.014,-0.0143,-0.0146,-0.0097,-0.0138,-0.0044,-0.0033,-0.0022,0.0036,0.0053,-0.0148,-0.0148,-0.0148,-0.0148,0,-0.0257,-0.0272,-0.0282,-0.0297,-0.0304,-0.0316,-0.031,-0.0309,-0.0305,-0.0285,-0.0237,-0.021,-0.0166,-0.016,-0.0156,-0.0072,-0.0063,-0.0056,-0.004,-0.0009,0.0048,0.0066,-0.0148,-0.0148,-0.0148,-0.0148,0,0,-0.0276,-0.03,-0.0303,-0.0309,-0.0319,-0.0328,-0.0327,-0.0309,-0.0286,-0.0269,-0.0224,-0.0185,-0.0145,-0.0124,-0.0091,-0.002,0.0079,-0.001,-0.0005,0.0057,0.0266,0.0207,0.022,0.0114,0.0118,0.012,0.0272,0,-0.0295,-0.0331,-0.0335,-0.0357,-0.037,-0.0357,-0.0353,-0.0331,-0.0306,-0.0263,-0.0192,-0.0149,-0.0136,-0.0109,-0.0029,0.0046,0.0129,0.0037,0.0219,0.0224,0.0177,0.024,0.0131,0.0286,0.029,0.0293,0.0295,0,-0.0322,-0.034,-0.0371,-0.0377,-0.0378,-0.0389,-0.0362,-0.0354,-0.0281,-0.0257,-0.0175,-0.0127,-0.0023,-0.0025,0.0163,0.0107,0.0188,0.0252,0.026,0.0218,0.0199,0.0251,0.0328,0.0325,0.0323,0.0321,0.0319,0,-0.0335,-0.0362,-0.0386,-0.0392,-0.0399,-0.04,-0.0395,-0.0345,-0.0324,-0.0239,-0.0213,-0.0074,-0.0021,0.0121,0.0228,0.0211,0.043,0.0424,0.046,0.0456,0.0461,0.0448,0.0581,0.0581,0.058,0.058,0.0579,0,-0.0352,-0.0369,-0.0395,-0.0408,-0.0419,-0.0414,-0.04,-0.0375,-0.032,-0.0278,-0.02,-0.0141,0.002,0.0147,0.026,0.0408,0.0466,0.0483,0.0505,0.0455,0.044,0.0473,0.0458,0.0585,0.0584,0.0583,0.0582,0,-0.0362,-0.038,-0.0408,-0.0425,-0.043,-0.0436,-0.0428,-0.0406,-0.0361,-0.0306,-0.0283,-0.017,-0.0009,0.0151,0.037,0.0429,0.0584,0.0625,0.0551,0.0562,0.0545,0.0529,0.0694,0.0693,0.0693,0.0693,0.0692,0,-0.0368,-0.0389,-0.0426,-0.044,-0.0451,-0.0458,-0.0457,-0.0429,-0.0408,-0.0321,-0.0294,-0.0149,-0.0057,0.0217,0.0367,0.0598,0.0613,0.0678,0.0624,0.0559,0.0564,0.0548,0.0533,0.0691,0.0691,0.0691,0.0691,0,-0.0378,-0.0399,-0.0422,-0.0455,-0.0471,-0.0482,-0.0482,-0.0471,-0.0423,-0.0389,-0.0282,-0.0152,0.002,0.0211,0.0381,0.0541,0.0626,0.0673,0.0675,0.0626,0.0558,0.056,0.0545,0.069,0.069,0.069,0.069,0,-0.0382,-0.0405,-0.044,-0.0463,-0.0487,-0.0496,-0.0494,-0.046,-0.0434,-0.0344,-0.0307,-0.0127,-0.0018,0.0183,0.0345,0.0488,0.0512,0.0529,0.0538,0.0542,0.043,0.0317,0.0417,0,0,0,0,0,-0.0379,-0.0409,-0.044,-0.0471,-0.0494,-0.0506,-0.0504,-0.0494,-0.0455,-0.0381,-0.0342,-0.0179,0.0047,0.0144,0.0284,0.0324,0.0525,0.0483,0.0546,0.0681,0.0683,0.057,0,0,0,0,0,0,-0.0381,-0.0417,-0.0441,-0.0469,-0.0489,-0.0511,-0.0511,-0.0487,-0.044,-0.0383,-0.025,-0.0184,0.0051,-0.0021,0.0277,0.0318,0.0364,0.0597,0.0599,0.068,0.0682,0.0683,0.0568,0,0,0,0,0]}]]